[[{"header":{"parameterUnit":"m.s-1","parameterCategory":1,"la1":30.2991,"la2":30.254,"lo1":-89.0895,"lo2":-89.0444,"dy":0.0017,"dx":0.0017,"nx":28,"ny":28,"refTime":"2024-03-26T21:00:00:Z","depth":0,"parameterNumber":2,"parameterNumberName":"U-component_of_WINDS"},"data":[0,0,0,0,0,0,0,0,0,0,0,0,0,0,0,0,0,0,0,0,0,0,0,0,0,0,0,0,0,0,0,0,0,0,0,0,0,0,0,0,0,0,0,0,0,0,0,0,0,0,0,0,0,0,0,0,0,0,-1.222,-1.222,0,-1.2231,-1.2231,-1.2231,-1.2243,-1.2243,-1.2243,-1.2243,-1.2254,-1.2254,-1.2254,0,0,0,0,0,0,0,0,0,0,0,0,0,-1.2207,-1.2207,-1.222,-1.222,-1.222,-1.2231,-1.2231,-1.2231,-1.2243,-1.2243,-1.2243,-1.2243,-1.2254,-1.2254,-1.2254,0,0,0,0,0,0,0,0,0,0,0,0,0,-1.2215,-1.2207,-1.222,-1.2227,-1.2228,-1.2231,-1.2231,-1.2231,-1.2242,-1.2243,-1.2243,-1.2243,-1.2253,-1.2254,-1.2254,-1.2251,0,0,-1.2255,-1.2255,0,0,0,0,0,0,0,0,-1.2214,-1.2215,-1.2226,-1.2227,-1.2227,-1.2236,-1.223,-1.2238,-1.2242,-1.2237,-1.2243,-1.2243,-1.2247,-1.2248,-1.225,-1.2251,-1.2251,-1.2255,-1.2255,-1.2255,-1.2255,0,0,0,0,0,0,0,-1.2214,-1.2215,-1.2224,-1.2226,-1.2227,-1.2229,-1.2231,-1.2232,-1.2241,-1.2237,-1.2238,-1.2239,-1.2248,-1.2249,-1.225,-1.2252,-1.2255,-1.2255,-1.2255,-1.2255,-1.2249,-1.2249,0,0,0,0,0,0,-1.2212,-1.2214,-1.2224,-1.2225,-1.2221,-1.2229,-1.2231,-1.2233,-1.2241,-1.2242,-1.2239,-1.224,-1.2249,-1.225,-1.225,-1.2246,-1.2255,-1.2255,-1.2255,-1.225,-1.2249,-1.2249,0,0,0,0,0,0,-1.2212,-1.2213,-1.2224,-1.222,-1.2221,-1.2229,-1.2231,-1.2233,-1.2234,-1.2242,-1.2244,-1.2239,-1.2249,-1.225,-1.225,-1.2247,-1.2255,-1.2255,-1.225,-1.225,-1.2249,-1.2238,0,0,0,0,0,0,-1.2211,-1.2213,-1.2212,-1.222,-1.2221,-1.2224,-1.2231,-1.2233,-1.2235,-1.2236,-1.2243,-1.2244,-1.2249,-1.225,-1.225,-1.2247,-1.2255,-1.225,-1.225,-1.2249,-1.2239,-1.2237,-1.2236,0,0,0,0,0,-1.2211,-1.2209,-1.2212,-1.2213,-1.2221,-1.2223,-1.2224,-1.2231,-1.2235,-1.2234,-1.2238,-1.2244,-1.2247,-1.225,-1.225,-1.2247,-1.2251,-1.225,-1.2249,-1.2239,-1.2238,-1.2236,0,0,0,0,0,0,-1.2201,-1.221,-1.2214,-1.2214,-1.2218,-1.2225,-1.2224,-1.2229,-1.2232,-1.2233,-1.224,-1.2242,-1.2241,-1.2244,-1.2247,-1.2244,-1.2249,-1.2249,-1.2242,-1.224,-1.2239,-1.2238,-1.2256,0,0,0,0,0,-1.2198,-1.22,-1.2208,-1.2207,-1.2209,-1.2216,-1.2218,-1.2222,-1.2227,-1.2228,-1.2233,-1.2237,-1.2238,-1.2239,-1.2242,-1.2239,-1.224,-1.2237,-1.2236,-1.2235,-1.2234,-1.2232,-1.223,-1.2247,-1.2247,-1.2247,0,0,-1.2194,-1.2199,-1.22,-1.2205,-1.2209,-1.221,-1.2218,-1.2219,-1.2219,-1.2228,-1.2229,-1.2232,-1.2236,-1.2235,-1.2235,-1.2238,-1.223,-1.2234,-1.2233,-1.2233,-1.2231,-1.223,-1.2228,-1.2247,-1.2247,-1.2247,0,0,-1.2186,-1.219,-1.219,-1.2193,-1.2198,-1.2203,-1.2202,-1.2209,-1.2212,-1.2212,-1.2218,-1.2219,-1.2222,-1.2225,-1.2226,-1.2218,-1.2223,-1.2218,-1.2211,-1.2209,-1.2208,-1.2207,-1.2203,-1.2201,-1.2218,-1.2218,-1.2218,0,-1.218,-1.2182,-1.2189,-1.2189,-1.2191,-1.2199,-1.2198,-1.2201,-1.2206,-1.2207,-1.221,-1.2214,-1.2217,-1.2216,-1.2214,-1.2215,-1.2214,-1.2218,-1.2208,-1.2206,-1.2206,-1.2202,-1.2201,-1.2217,-1.2217,-1.2217,-1.2217,0,-1.2173,-1.2174,-1.2173,-1.2178,-1.218,-1.2179,-1.2186,-1.2186,-1.2191,-1.2194,-1.2194,-1.2198,-1.2201,-1.2201,-1.2205,-1.22,-1.2202,-1.2206,-1.2212,-1.2203,-1.22,-1.2199,-1.2216,-1.2217,-1.2217,-1.2217,0,0,-1.216,-1.2168,-1.2167,-1.2169,-1.2175,-1.2176,-1.2175,-1.2177,-1.2177,-1.2181,-1.218,-1.2182,-1.2185,-1.2187,-1.2192,-1.219,-1.2182,-1.2195,-1.2195,-1.2191,-1.2175,-1.2171,-1.217,-1.2185,-1.2185,-1.2184,-1.2174,0,-1.2153,-1.2153,-1.2158,-1.2156,-1.2157,-1.2164,-1.2163,-1.2166,-1.2169,-1.217,-1.2174,-1.2174,-1.218,-1.2181,-1.2179,-1.2183,-1.2178,-1.2184,-1.2184,-1.2183,-1.2182,-1.2168,-1.2164,-1.2155,-1.2173,-1.2173,-1.2173,0,-1.2144,-1.2147,-1.2145,-1.2149,-1.215,-1.2149,-1.2151,-1.2152,-1.2155,-1.2157,-1.2159,-1.2164,-1.2162,-1.2168,-1.2166,-1.217,-1.217,-1.2171,-1.2171,-1.2171,-1.2177,-1.2167,-1.2152,-1.215,-1.2171,-1.2171,-1.2171,0,-1.2134,-1.2137,-1.2135,-1.2137,-1.2142,-1.2141,-1.2144,-1.2147,-1.2148,-1.2149,-1.2149,-1.2151,-1.2152,-1.2152,-1.2157,-1.2161,-1.2154,-1.2161,-1.2156,-1.2155,-1.2154,-1.2154,-1.2138,-1.2155,-1.2155,-1.2155,-1.2155,0,-1.2125,-1.2123,-1.2131,-1.213,-1.2128,-1.2134,-1.2131,-1.2134,-1.2137,-1.2136,-1.2142,-1.2141,-1.2148,-1.2147,-1.2151,-1.2148,-1.2149,-1.215,-1.2151,-1.2149,-1.2149,-1.2149,-1.215,-1.2154,-1.2154,-1.2154,-1.2154,0,-1.2113,-1.2118,-1.2117,-1.2122,-1.2123,-1.2121,-1.2125,-1.2124,-1.2128,-1.2127,-1.2127,-1.2132,-1.2131,-1.2136,-1.2137,-1.2139,-1.2135,-1.2137,-1.2134,-1.2134,-1.2129,-1.2129,-1.2112,-1.2109,-1.2128,-1.2128,-1.2128,0,-1.2107,-1.2106,-1.211,-1.211,-1.2112,-1.2112,-1.2113,-1.2118,-1.2118,-1.2121,-1.2119,-1.2119,-1.212,-1.2119,-1.2122,-1.2123,-1.2125,-1.2119,-1.2125,-1.2123,-1.2124,-1.2123,-1.2123,-1.2117,-1.2117,-1.2117,-1.2117,0,-1.2096,-1.2098,-1.2098,-1.2099,-1.21,-1.2101,-1.2102,-1.2102,-1.2107,-1.2107,-1.2107,-1.2107,-1.2107,-1.2107,-1.2108,-1.2109,-1.2114,-1.2115,-1.2113,-1.2111,-1.2109,-1.2109,-1.2129,-1.2115,-1.2115,-1.2115,-1.2115,-1.2115,-1.2086,-1.2085,-1.2087,-1.2087,-1.2089,-1.209,-1.2089,-1.2092,-1.2091,-1.2092,-1.2095,-1.2094,-1.2096,-1.2097,-1.2098,-1.2097,-1.2099,-1.2098,-1.2097,-1.2097,-1.2095,-1.211,-1.2097,-1.2097,-1.2097,-1.2097,-1.2097,0,-1.2074,-1.2076,-1.2076,-1.2077,-1.2077,-1.2081,-1.2082,-1.2082,-1.208,-1.2082,-1.2082,-1.2081,-1.208,-1.2083,-1.2083,-1.2081,-1.2083,-1.208,-1.208,-1.208,-1.2093,-1.2094,-1.2079,-1.2079,-1.2079,-1.2079,-1.2079,-1.2079,-1.2068,-1.2066,-1.2068,-1.2066,-1.2067,-1.2066,-1.2066,-1.2067,-1.2068,-1.2066,-1.2066,-1.2067,-1.2069,-1.2068,-1.2068,-1.2069,-1.2068,-1.2065,-1.2066,-1.2078,-1.208,-1.2081,-1.2082,-1.2065,-1.2065,-1.2053,-1.2053,-1.2053]},{"header":{"parameterUnit":"m.s-1","parameterCategory":1,"la1":30.2991,"la2":30.254,"lo1":-89.0895,"lo2":-89.0444,"dy":0.0017,"dx":0.0017,"nx":28,"ny":28,"refTime":"2024-03-26T21:00:00:Z","depth":0,"parameterNumber":3,"parameterNumberName":"V-component_of_WINDS"},"data":[0,0,0,0,0,0,0,0,0,0,0,0,0,0,0,0,0,0,0,0,0,0,0,0,0,0,0,0,0,0,0,0,0,0,0,0,0,0,0,0,0,0,0,0,0,0,0,0,0,0,0,0,0,0,0,0,0,0,-5.0115,-5.0115,0,-5.0177,-5.0178,-5.0179,-5.0181,-5.018,-5.0179,-5.0179,-5.0238,-5.024,-5.0242,0,0,0,0,0,0,0,0,0,0,0,0,0,-4.9993,-4.9995,-5.0114,-5.0115,-5.0116,-5.0177,-5.0178,-5.0179,-5.0181,-5.018,-5.0179,-5.0178,-5.0237,-5.024,-5.0243,0,0,0,0,0,0,0,0,0,0,0,0,0,-5.0049,-4.9996,-5.0114,-5.0125,-5.0126,-5.0177,-5.0178,-5.0179,-5.0181,-5.018,-5.0179,-5.0178,-5.0236,-5.024,-5.0243,-5.0286,0,0,-5.0253,-5.0255,0,0,0,0,0,0,0,0,-5.0046,-5.0054,-5.0122,-5.0124,-5.0126,-5.017,-5.0157,-5.0215,-5.0181,-5.016,-5.0179,-5.0177,-5.0216,-5.0221,-5.0235,-5.0289,-5.0291,-5.0254,-5.0256,-5.0257,-5.0258,0,0,0,0,0,0,0,-5.0042,-5.0051,-5.0139,-5.0123,-5.0125,-5.0125,-5.0132,-5.0168,-5.0193,-5.0162,-5.0162,-5.017,-5.0217,-5.0232,-5.0236,-5.0292,-5.0253,-5.0257,-5.0259,-5.026,-5.0387,-5.0388,0,0,0,0,0,0,-5.0037,-5.0048,-5.0137,-5.0141,-5.0083,-5.0128,-5.0136,-5.0157,-5.0193,-5.0197,-5.0171,-5.017,-5.0226,-5.0232,-5.0238,-5.0293,-5.0257,-5.026,-5.0262,-5.0386,-5.0387,-5.0389,0,0,0,0,0,0,-5.0034,-5.0045,-5.0135,-5.0095,-5.0106,-5.0131,-5.0155,-5.0159,-5.0174,-5.02,-5.0204,-5.0182,-5.0226,-5.0234,-5.0275,-5.0295,-5.0262,-5.0265,-5.0384,-5.0386,-5.0388,-5.0402,0,0,0,0,0,0,-5.0031,-5.0044,-5.0061,-5.0095,-5.0108,-5.0171,-5.0156,-5.0161,-5.018,-5.018,-5.0211,-5.0215,-5.0226,-5.027,-5.0279,-5.0299,-5.0268,-5.0382,-5.0385,-5.0387,-5.04,-5.0405,-5.0408,0,0,0,0,0,-5.0026,-5.0061,-5.0062,-5.0073,-5.0131,-5.0173,-5.018,-5.0192,-5.0182,-5.02,-5.0216,-5.0214,-5.0292,-5.0274,-5.0284,-5.0306,-5.0381,-5.0384,-5.0387,-5.0398,-5.0404,-5.0408,0,0,0,0,0,0,-5.0027,-5.0066,-5.0067,-5.0114,-5.014,-5.0173,-5.0195,-5.0197,-5.0226,-5.0223,-5.0236,-5.0243,-5.0285,-5.0299,-5.0279,-5.0351,-5.0335,-5.034,-5.034,-5.0346,-5.035,-5.0346,-5.027,0,0,0,0,0,-5.0033,-5.0065,-5.0096,-5.0135,-5.0148,-5.0169,-5.0188,-5.0196,-5.0223,-5.0233,-5.0253,-5.0278,-5.0308,-5.0327,-5.0356,-5.0402,-5.0409,-5.0422,-5.0426,-5.0429,-5.0434,-5.0461,-5.0467,-5.0399,-5.0399,-5.0399,0,0,-5.0044,-5.007,-5.0089,-5.0135,-5.0157,-5.0189,-5.0179,-5.0212,-5.0236,-5.0237,-5.0279,-5.0295,-5.0323,-5.0368,-5.0388,-5.0381,-5.0454,-5.0433,-5.0436,-5.0438,-5.0465,-5.0471,-5.0477,-5.0401,-5.04,-5.04,0,0,-5.0083,-5.0105,-5.014,-5.0163,-5.0196,-5.021,-5.0219,-5.0252,-5.0263,-5.0305,-5.0307,-5.0335,-5.0386,-5.0407,-5.0424,-5.0473,-5.0473,-5.0482,-5.0504,-5.053,-5.0535,-5.054,-5.0559,-5.0566,-5.0486,-5.0486,-5.0486,0,-5.0092,-5.0143,-5.0158,-5.0193,-5.0214,-5.0219,-5.0255,-5.0275,-5.0315,-5.0329,-5.032,-5.0387,-5.0406,-5.0457,-5.0469,-5.0482,-5.0492,-5.0479,-5.0534,-5.0539,-5.0543,-5.0562,-5.0569,-5.0487,-5.0487,-5.0487,-5.0487,0,-5.0154,-5.0189,-5.0214,-5.0256,-5.0279,-5.0314,-5.0334,-5.0355,-5.0361,-5.0376,-5.042,-5.0444,-5.0479,-5.0491,-5.0496,-5.0543,-5.0537,-5.0531,-5.0516,-5.0551,-5.0568,-5.0575,-5.0489,-5.0488,-5.0488,-5.0488,0,0,-5.0194,-5.0245,-5.0254,-5.0274,-5.0312,-5.0339,-5.0374,-5.0411,-5.043,-5.0457,-5.0488,-5.0532,-5.0528,-5.0547,-5.0554,-5.0578,-5.0617,-5.0569,-5.057,-5.0578,-5.0672,-5.0677,-5.0685,-5.0617,-5.0618,-5.0619,-5.067,0,-5.0237,-5.0304,-5.0319,-5.0375,-5.0408,-5.0414,-5.0445,-5.0471,-5.0487,-5.0516,-5.0532,-5.0564,-5.0554,-5.0567,-5.059,-5.0607,-5.0636,-5.0604,-5.0645,-5.0646,-5.0639,-5.0694,-5.07,-5.0746,-5.0677,-5.0678,-5.0679,0,-5.0297,-5.033,-5.039,-5.0426,-5.044,-5.0468,-5.0504,-5.0532,-5.0562,-5.0572,-5.0595,-5.0601,-5.0637,-5.062,-5.0671,-5.0649,-5.0667,-5.0678,-5.068,-5.0685,-5.0665,-5.0702,-5.0761,-5.0769,-5.0689,-5.0688,-5.0687,0,-5.0322,-5.038,-5.0425,-5.0441,-5.0484,-5.0504,-5.0522,-5.0551,-5.0573,-5.0603,-5.0618,-5.0651,-5.0669,-5.0695,-5.0709,-5.0695,-5.076,-5.0743,-5.0769,-5.0769,-5.0783,-5.0782,-5.0848,-5.0792,-5.0792,-5.0792,-5.0792,0,-5.037,-5.0407,-5.0437,-5.0464,-5.0506,-5.0523,-5.0564,-5.0581,-5.0608,-5.0638,-5.0644,-5.0672,-5.0689,-5.0719,-5.073,-5.0772,-5.078,-5.0788,-5.0791,-5.0789,-5.0788,-5.0801,-5.0799,-5.0794,-5.0793,-5.0793,-5.0793,0,-5.0405,-5.0427,-5.0476,-5.0513,-5.0524,-5.0553,-5.0584,-5.0611,-5.0627,-5.0665,-5.0675,-5.07,-5.0736,-5.0753,-5.0797,-5.0804,-5.0852,-5.0852,-5.0843,-5.0845,-5.087,-5.0868,-5.0947,-5.0959,-5.0895,-5.0895,-5.0896,0,-5.0435,-5.0465,-5.0506,-5.0528,-5.0548,-5.0583,-5.0606,-5.0623,-5.0647,-5.0685,-5.0707,-5.0744,-5.0774,-5.0832,-5.0853,-5.0887,-5.0888,-5.0914,-5.0893,-5.0891,-5.0891,-5.0889,-5.0893,-5.0918,-5.0918,-5.0919,-5.0919,0,-5.0487,-5.0497,-5.0531,-5.057,-5.0598,-5.0628,-5.0658,-5.0675,-5.0697,-5.0723,-5.0762,-5.0786,-5.0833,-5.087,-5.0906,-5.0923,-5.0925,-5.0926,-5.0934,-5.0932,-5.0927,-5.0932,-5.0855,-5.0924,-5.0923,-5.0923,-5.0923,-5.0923,-5.0521,-5.0549,-5.0583,-5.0621,-5.0646,-5.0675,-5.0703,-5.0723,-5.0756,-5.0798,-5.0805,-5.0847,-5.0877,-5.0926,-5.0945,-5.0977,-5.097,-5.0982,-5.0985,-5.0988,-5.099,-5.0921,-5.0983,-5.0983,-5.0982,-5.0982,-5.0982,0,-5.0575,-5.0598,-5.0633,-5.0676,-5.0707,-5.0708,-5.0742,-5.0767,-5.0804,-5.0833,-5.0864,-5.0909,-5.0945,-5.097,-5.1007,-5.1028,-5.103,-5.1037,-5.1036,-5.104,-5.0992,-5.0983,-5.1035,-5.1035,-5.1035,-5.1035,-5.1035,-5.1035,-5.0606,-5.0653,-5.0667,-5.0727,-5.0749,-5.0792,-5.0811,-5.0837,-5.0861,-5.0912,-5.0943,-5.096,-5.0987,-5.1026,-5.106,-5.1066,-5.108,-5.1088,-5.1094,-5.1049,-5.1043,-5.1038,-5.1029,-5.109,-5.109,-5.1139,-5.1139,-5.114]}]]